User: anonymous   Login
Location: West Cummington
(42.4920°N, 72.9680°W)
Time: 06:38:36
(UTC-04:00)
Language:

Cosmos 841 Rocket - Orbit

View from above orbital plane
View from above orbital plane
View from above satellite
View from above satellite

Ground track
Ground track

The orbit data is extracted from the following two-line orbital elements,

1 09023U 76069B   15087.65551151  .00000346  00000-0  11960-3 0  9995
2 09023 074.0440 154.2931 0017196 164.4004 195.7684 14.39339588 28051
Epoch (UTC): 28 March 2015 15:43:56
Eccentricity: 0.0017196
inclination: 74.0440°
perigee height: 748 km
apogee height: 773 km
right ascension of ascending node: 154.2931°
argument of perigee: 164.4004°
revolutions per day: 14.39339588
mean anomaly at epoch: 195.7684°
orbit number at epoch: 2805

The dashed part of the orbit path shows where the satellite is in the earth's shadow,  

DLR